FW3743 Weather Reports


Display with metric or nautical units.
time (UTC)temp
F
wind
direction
speed
MPH
gust
MPH
rain 1hr
in
rain 24hr
in
rain mn
in
humidity
%
barometer
mb
20260903102234 66 0.0 0.0 0.00 1.40 0.00 99 1012.3
20260903101233 66 0.0 0.0 0.00 1.40 0.00 99 1013.4
20260903100234 67 0.0 0.0 0.00 1.40 0.00 99 1012.2
20260903095233 67 0.0 0.0 0.00 1.40 0.00 99 1013.5
20260903094355 67 0.0 0.0 0.00 1.40 0.00 99 1012.3
20260903093233 67 0.0 0.0 0.00 1.40 0.00 99 1013.4
20260903092234 67 0.0 0.0 0.00 1.40 0.00 99 1013.4
20260903091233 67 0.0 0.0 0.00 1.40 0.00 99 1013.1
20260903090234 67 0.0 0.0 0.00 1.40 0.00 99 1013.3
20260903085233 67 0.0 0.0 0.00 1.40 0.00 99 1013.0
20260903084234 67 0.0 0.0 0.00 1.40 0.00 99 1013.3
20260903083233 67 0.0 0.0 0.00 1.40 0.00 99 1013.2
20260903082234 67 0.0 0.0 0.00 1.40 0.00 99 1013.1
20260903081233 67 0.0 0.0 0.00 1.40 0.00 99 1013.2
20260903080235 66 0.0 0.0 0.00 1.40 0.00 99 1013.3
20260903075253 66 0.0 0.0 0.00 1.40 0.00 99 1013.0
20260903074235 66 0.0 0.0 0.00 1.40 0.00 99 1013.4
20260903073253 66 0.0 0.0 0.00 1.40 0.00 99 1013.5
20260903072234 66 0.0 0.0 0.00 1.40 0.00 99 1013.6
20260903071253 67 0.0 0.0 0.00 1.40 0.00 99 1013.5
20260903070234 67 0.0 0.0 0.00 1.40 0.00 99 1013.8
20260903065233 67 0.0 0.0 0.00 1.40 0.00 99 1013.8
20260903064234 66 0.0 0.0 0.00 1.40 0.00 99 1013.5
20260903063233 67 0.0 0.0 0.00 1.40 0.00 99 1013.3
20260903062235 67 0.0 0.0 0.00 1.40 0.00 99 1013.7
20260903061253 67 0.0 0.0 0.00 1.40 0.00 99 1013.6
20260903060234 67 0.0 0.0 0.00 1.40 0.00 99 1013.5
20260903055233 67 0.0 0.0 0.00 1.40 0.00 99 1013.3
20260903054234 67 0.0 0.0 0.00 1.40 0.00 99 1013.5
20260903053253 67 0.0 0.0 0.00 1.40 0.00 99 1013.4
20260903052235 67 0.0 0.0 0.00 1.40 0.00 99 1013.2
20260903051233 67 0.0 0.0 0.00 1.40 0.00 99 1013.3
20260903050235 67 0.0 0.0 0.00 1.40 0.00 99 1013.4
20260903045253 67 0.0 0.0 0.00 1.40 0.00 99 1013.4
20260903044254 67 0.0 0.0 0.00 1.40 0.00 99 1013.3
20260903043233 68 0.0 0.0 0.00 1.40 0.00 99 1013.2
20260903042235 68 0.0 0.0 0.00 1.40 0.00 99 1013.7
20260903041253 68 0.0 0.0 0.00 1.40 0.00 99 1013.7
20260903040235 68 0.0 0.0 0.00 1.40 0.00 99 1014.0
20260903035233 68 0.0 0.0 0.00 1.40 1.40 99 1013.9
20260903034235 68 0.0 0.0 0.00 1.40 1.40 99 1013.8
20260903033233 68 341 0.0 4.0 0.00 1.40 1.40 99 1014.0
20260903032255 68 303 0.0 2.0 0.02 1.40 1.40 99 1013.7
20260903031233 68 0.0 0.0 0.02 1.40 1.40 99 1013.2
20260903030255 68 0 0.0 2.0 0.02 1.40 1.40 99 1012.3
20260903025233 68 247 0.0 7.0 0.03 1.39 1.39 99 1011.9
20260903024235 69 346 0.0 1.0 0.06 1.39 1.39 99 1012.2
20260903023233 69 0.0 0.0 0.09 1.39 1.39 99 1012.7
20260903022235 70 0.0 0.0 0.10 1.38 1.38 99 1013.3
20260903021233 70 0.0 0.0 0.13 1.38 1.38 99 1013.8
20260903020235 71 0.0 0.0 0.15 1.37 1.37 99 1013.4
20260903015233 72 24 0.0 1.0 0.15 1.35 1.35 99 1012.8
20260903014255 72 32 0.0 4.0 0.13 1.32 1.32 99 1014.1
20260903013233 72 252 0.0 2.0 0.11 1.29 1.29 99 1014.1
20260903012235 72 327 0.0 11.0 0.09 1.27 1.27 99 1013.5
20260903011233 72 99 0.0 10.0 0.06 1.24 1.24 99 1012.7
20260903010235 73 0.0 0.0 0.03 1.22 1.22 99 1014.8
20260903005233 73 0.0 0.0 0.02 1.20 1.20 97 1014.5
20260903004255 74 0.0 0.0 0.00 1.18 1.18 95 1014.5
20260903003254 75 0.0 0.0 0.00 1.18 1.18 93 1014.2
20260903002235 75 0.0 0.0 0.00 1.18 1.18 93 1014.6
20260903001233 75 0.0 0.0 0.00 1.18 1.18 93 1013.9
20260903000235 75 0.0 0.0 0.00 1.18 1.18 93 1013.8
20260902235233 75 282 1.0 8.0 0.00 1.18 1.18 93 1013.2
20260902234235 75 305 0.0 1.0 0.00 1.18 1.18 92 1013.3
20260902233233 76 100 0.0 4.0 0.00 1.18 1.18 92 1013.2
20260902232235 76 77 0.0 1.0 0.00 1.18 1.18 91 1013.6
20260902231233 76 0.0 0.0 0.00 1.18 1.18 91 1013.7
20260902230235 77 0 0.0 7.0 0.00 1.18 1.18 91 1013.2
20260902225233 77 0.0 0.0 0.00 1.18 1.18 91 1012.7
20260902224235 77 225 0.0 4.0 0.00 1.18 1.18 90 1012.6
20260902223233 77 57 0.0 1.0 0.00 1.18 1.18 90 1012.8
20260902222235 78 0.0 0.0 0.00 1.18 1.18 89 1012.7
20260902221233 78 110 0.0 4.0 0.00 1.18 1.18 88 1012.0
20260902220235 79 67 0.0 1.0 0.00 1.18 1.18 87 1012.9
20260902215233 79 93 0.0 5.0 0.00 1.18 1.18 87 1013.7
20260902214235 80 86 0.0 1.0 0.00 1.18 1.18 86 1014.3
20260902213253 81 89 0.0 1.0 0.00 1.18 1.18 85 1014.6
20260902212235 81 85 0.0 1.0 0.00 1.18 1.18 84 1015.0
20260902211233 80 0.0 0.0 0.00 1.18 1.18 85 1015.1
20260902210235 80 0.0 0.0 0.00 1.18 1.18 85 1015.1
20260902205233 81 266 0.0 1.0 0.00 1.18 1.18 83 1015.1
20260902204241 82 11 0.0 2.0 0.00 1.18 1.18 81 1015.2
20260902203233 83 337 0.0 4.0 0.00 1.18 1.18 81 1014.8
20260902202236 83 191 0.0 4.0 0.00 1.18 1.18 79 1015.0
20260902201313 83 273 1.0 8.0 0.00 1.18 1.18 80 1014.8
20260902200236 85 0.0 0.0 0.00 1.18 1.18 78 1014.7
20260902195233 84 108 0.0 7.0 0.00 1.18 1.18 77 1014.3
20260902194235 84 356 0.0 2.0 0.00 1.18 1.18 78 1014.7
20260902193233 84 295 0.0 2.0 0.00 1.18 1.18 78 1014.5
20260902192256 84 0.0 0.0 0.00 1.18 1.18 76 1014.9
20260902191253 84 135 0.0 1.0 0.00 1.18 1.18 75 1014.8
20260902190236 84 88 0.0 4.0 0.00 1.18 1.18 75 1015.2
20260902185233 84 118 0.0 4.0 0.00 1.18 1.18 75 1015.1
20260902184235 83 231 0.0 7.0 0.00 1.18 1.18 75 1015.5
20260902183354 83 286 0.0 5.0 0.00 1.18 1.18 73 1015.3
20260902182235 83 284 0.0 8.0 0.00 1.18 1.18 75 1015.8
20260902181233 83 305 2.0 8.0 0.00 1.18 1.18 74 1015.6
20260902180256 82 329 0.0 4.0 0.00 1.18 1.18 76 1015.5
20260902175233 82 56 0.0 4.0 0.00 1.18 1.18 80 1015.4
20260902174236 81 5 0.0 7.0 0.00 1.18 1.18 83 1015.8
20260902173233 81 71 0.0 4.0 0.00 1.18 1.18 84 1015.4
20260902172236 79 344 0.0 2.0 0.00 1.18 1.18 86 1015.5
20260902171234 79 287 0.0 5.0 0.00 1.18 1.18 86 1015.4
20260902170236 77 281 0.0 1.0 0.00 1.18 1.18 88 1015.8
20260902165233 76 0.0 0.0 0.00 1.18 1.18 89 1015.4
20260902164236 75 77 0.0 1.0 0.02 1.18 1.18 95 1015.6
20260902163253 73 99 0.0 7.0 0.03 1.18 1.18 96 1015.4
20260902162236 71 356 0.0 4.0 0.06 1.18 1.18 99 1015.5
20260902161233 70 68 0.0 2.0 0.08 1.18 1.18 99 1015.6
20260902160236 69 284 0.0 2.0 0.12 1.18 1.18 99 1015.9
20260902155242 68 289 0.0 2.0 0.22 1.18 1.18 99 1016.0
20260902154236 68 250 0.0 5.0 0.26 1.16 1.16 99 1016.5
20260902153233 68 67 0.0 1.0 0.28 1.14 1.14 99 1016.7
20260902152256 68 49 0.0 1.0 0.29 1.11 1.11 99 1017.9
20260902151233 68 0.0 0.0 0.30 1.09 1.09 99 1018.2
20260902150256 68 279 0.0 2.0 0.30 1.05 1.05 99 1018.6
20260902145233 68 0.0 0.0 0.60 0.96 0.96 99 1018.4
20260902144236 69 298 0.0 4.0 0.80 0.89 0.89 99 1018.7
20260902143233 69 0.0 0.0 0.82 0.85 0.85 99 1017.9
20260902142236 69 0.0 0.0 0.80 0.81 0.81 99 1017.9
20260902141233 69 0.0 0.0 0.77 0.78 0.78 99 1017.6
20260902140444 69 0.0 0.0 0.74 0.74 0.74 99 1017.8
20260902135234 67 320 0.0 4.0 0.35 0.35 0.35 99 1017.9
20260902134236 68 0.0 0.0 0.09 0.09 0.09 99 1017.1
20260902133234 68 0.0 0.0 0.02 0.02 0.02 99 1017.3
20260902132236 68 0.0 0.0 0.00 0.00 0.00 99 1017.6
20260902131234 68 90 0.0 4.0 0.00 0.00 0.00 99 1017.4
20260902130233 68 0.0 0.0 0.00 0.00 0.00 99 1017.5
20260902125254 68 34 0.0 1.0 0.00 0.00 0.00 99 1017.3
20260902124233 68 0.0 0.0 0.00 0.00 0.00 99 1017.1
20260902123234 68 0.0 0.0 0.00 0.00 0.00 99 1017.1
20260902122233 68 0.0 0.0 0.00 0.00 0.00 99 1017.3
20260902121234 68 0.0 0.0 0.00 0.00 0.00 99 1017.0
20260902120253 68 0.0 0.0 0.00 0.00 0.00 99 1016.5
20260902115234 68 87 0.0 1.0 0.00 0.00 0.00 99 1016.5
20260902114253 68 83 0.0 2.0 0.00 0.00 0.00 99 1016.6
20260902113254 68 78 0.0 1.0 0.00 0.00 0.00 99 1016.4
20260902112233 68 78 0.0 5.0 0.00 0.00 0.00 99 1016.4
20260902111234 67 83 0.0 1.0 0.00 0.00 0.00 99 1016.3
20260902110233 67 0.0 0.0 0.00 0.00 0.00 99 1016.3
20260902105234 67 93 0.0 2.0 0.00 0.00 0.00 99 1016.1
20260902104233 67 0.0 0.0 0.00 0.00 0.00 99 1016.0
20260902103234 67 0.0 0.0 0.00 0.00 0.00 99 1016.2